Sherman Airfield (FLV)
Ft Leavenworth, KS
Field Elevation: 772
Lat: 39°22.10N  Long: 94°54.89W
CTAF/Unicom Freq: 126.2000
   
    
Weather Advisories
12/19/2014 15:03 Z
Altimeter 30.28" Hg
Wind 090° @ 3 KT
Gusts --
Visibility 10 SM
Temperature -1° C (30° F)
Dewpoint -1° C (30° F)
Relative Humidity 100%
Density Altitude --
Condensation Altitude --
Wind Chill -3° C (27° F)
  Wind and Runways
Indicated Runway = 16
History
 
 
More Info
All DigiWx sites map
Weather Radar
NOAA Forecast
 
Airport IQ 5010
(K68) Garnett Municipal
(GRE) Greenville
 
about DigiWx
 
FAA Disclaimer: The data displayed is for advisory purposes only and is not to be used for flight planning or operations. For official data, please call (not available) to hear the current automated AWOS voice message.
  METAR FLV 191503Z AUTO 09003KT 10SM M01/M01 A3028